Location: Newark
(54.6833°N, 25.2833°E)
Time: 12:58:25
(UTC+00:00)

SR - Visible Passes

Search period start: 20 November 2019 00:00
Search period end: 30 November 2019 00:00
Orbit: 573 x 882 km, 66.7° (Epoch: 20 November)

Date Brightness Start Highest point End Pass type
(mag) Time Alt. Az. Time Alt. Az. Time Alt. Az.
20 Nov ? 14:45:32 10° WSW 14:50:55 46° NNW 14:56:37 10° NE visible
20 Nov ? 16:29:34 10° WNW 16:34:24 26° N 16:37:04 19° NNE visible
20 Nov ? 18:13:08 10° NW 18:16:28 25° NNW 18:16:28 25° NNW visible
20 Nov ? 19:55:36 10° NW 19:55:52 11° NW 19:55:52 11° NW visible
21 Nov ? 15:39:09 10° WNW 15:44:10 30° NNW 15:48:41 13° NE visible
21 Nov ? 17:23:06 10° NW 17:27:59 26° N 17:28:05 26° N visible
21 Nov ? 19:05:52 10° NW 19:07:29 18° NNW 19:07:29 18° NNW visible
22 Nov ? 14:48:47 10° W 14:54:01 36° NNW 14:59:28 10° NE visible
22 Nov ? 16:32:54 10° WNW 16:37:42 25° N 16:39:43 21° NNE visible
22 Nov ? 18:16:05 10° NW 18:19:06 25° NNW 18:19:06 25° NNW visible
22 Nov ? 19:58:23 10° NW 19:58:31 11° NW 19:58:31 11° NW visible
23 Nov ? 15:42:34 10° WNW 15:47:25 27° N 15:51:20 14° NE visible
23 Nov ? 17:26:10 10° NW 17:30:44 28° N 17:30:44 28° N visible
23 Nov ? 19:08:40 10° NW 19:10:09 18° NW 19:10:09 18° NW visible
24 Nov ? 14:52:09 10° W 14:57:11 30° NNW 15:02:25 10° NE visible
24 Nov ? 16:36:07 10° NW 16:41:00 26° N 16:42:23 24° NNE visible
24 Nov ? 18:18:56 10° NW 18:21:47 26° NNW 18:21:47 26° NNW visible
25 Nov ? 15:45:54 10° WNW 15:50:44 26° N 15:54:02 16° NE visible
25 Nov ? 17:29:08 10° NW 17:33:26 31° N 17:33:26 31° N visible
25 Nov ? 19:11:27 10° NW 19:12:51 18° NW 19:12:51 18° NW visible
26 Nov ? 14:55:33 10° WNW 15:00:27 27° N 15:05:28 10° NE visible
26 Nov ? 16:39:13 10° NW 16:44:18 28° NNE 16:45:06 27° NNE visible
26 Nov ? 18:21:45 10° NW 18:24:31 28° NNW 18:24:31 28° NNW visible
27 Nov ? 15:49:09 10° NW 15:54:02 26° N 15:56:48 19° NE visible
27 Nov ? 17:32:00 10° NW 17:36:12 36° N 17:36:12 36° N visible
27 Nov ? 19:14:17 10° NW 19:15:37 17° NW 19:15:37 17° NW visible
28 Nov ? 14:58:54 10° WNW 15:03:45 26° N 15:08:31 11° NE visible
28 Nov ? 16:42:12 10° NW 16:47:31 33° NNE 16:47:55 32° NNE visible
28 Nov ? 18:24:31 10° NW 18:27:20 29° NW 18:27:20 29° NW visible
29 Nov ? 15:52:16 10° NW 15:57:19 28° NNE 15:59:40 22° NE visible
29 Nov ? 17:34:48 10° NW 17:39:05 42° N 17:39:05 42° N visible
29 Nov ? 19:17:10 10° NW 19:18:29 17° NW 19:18:29 17° NW visible
